Location: Unspecified
(0.0000°N, 0.0000°E)
Time: 21:44:24
(UTC+00:00)

Altair - All Passes

Search period start: 23 September 2017 00:00
Search period end: 03 October 2017 00:00
Orbit: 1501 x 1683 km, 47.2° (Epoch: 22 September)

Date Brightness Start Highest point End Pass type
(mag) Time Alt. Az. Time Alt. Az. Time Alt. Az.
23 Sep - 08:00:35 10° NNE 08:04:46 13° NE 08:08:53 10° ENE daylight
23 Sep - 10:00:24 10° NW 10:09:55 76° NE 10:19:08 10° SE daylight
23 Sep - 12:07:57 10° W 12:14:30 21° SW 12:21:01 10° S daylight
23 Sep - 20:45:56 10° S 20:54:19 33° SE 21:02:54 10° ENE visible
23 Sep - 22:49:24 10° SW 22:58:57 56° NW 23:08:47 10° NNE night (unlit)
24 Sep - 07:36:42 10° NNE 07:39:28 11° NE 07:42:12 10° ENE daylight
24 Sep - 09:35:17 10° NNW 09:44:46 68° NE 09:53:56 10° SE daylight
24 Sep - 11:42:12 10° W 11:49:19 24° SW 11:56:21 10° S daylight
24 Sep - 20:21:07 10° S 20:29:06 29° SE 20:37:17 10° ENE visible
24 Sep - 22:24:07 10° SW 22:33:46 62° NW 22:43:42 10° NNE visible
25 Sep - 00:37:22 10° NW 00:39:19 11° NW 00:41:16 10° NNW night (unlit)
25 Sep - 09:10:12 10° NNW 09:19:38 60° NE 09:28:42 10° SE daylight
25 Sep - 11:16:32 10° WNW 11:24:08 28° SW 11:31:37 10° S daylight
25 Sep - 19:56:22 10° S 20:03:54 25° SE 20:11:35 10° E visible
25 Sep - 21:58:52 10° SW 22:08:35 69° NW 22:18:36 10° NNE visible
26 Sep - 00:10:09 10° WNW 00:13:59 13° NW 00:17:51 10° NNW night (unlit)
26 Sep - 08:45:09 10° NNW 08:54:28 54° NE 09:03:28 10° SE daylight
26 Sep - 10:50:57 10° WNW 10:58:57 31° SW 11:06:50 10° S daylight
26 Sep - 19:31:40 10° S 19:38:41 22° SE 19:45:49 10° E visible
26 Sep - 21:33:41 10° SW 21:43:24 77° NW 21:53:28 10° NE visible
26 Sep - 23:43:42 10° WNW 23:48:40 15° NW 23:53:42 10° NNW night (unlit)
27 Sep - 08:20:07 10° NNW 08:29:19 48° NE 08:38:10 10° ESE daylight
27 Sep - 10:25:25 10° WNW 10:33:48 35° SW 10:42:01 10° SSE daylight
27 Sep - 19:07:04 10° S 19:13:27 19° SE 19:19:56 10° E visible
27 Sep - 21:08:30 10° SW 21:18:14 85° NW 21:28:19 10° NE visible
27 Sep - 23:17:33 10° W 23:23:22 17° NW 23:29:17 10° N night (unlit)
28 Sep - 07:55:07 10° NNW 08:04:08 43° NE 08:12:49 10° ESE daylight
28 Sep - 09:59:56 10° WNW 10:08:38 40° SW 10:17:08 10° SSE daylight
28 Sep - 18:42:34 10° S 18:48:13 17° SE 18:53:55 10° E visible
28 Sep - 20:43:22 10° SW 20:53:04 87° SE 21:03:07 10° NE visible
28 Sep - 22:51:35 10° W 22:58:05 19° NW 23:04:43 10° N night (unlit)
29 Sep - 07:30:09 10° NNW 07:38:57 38° NE 07:47:26 10° ESE daylight
29 Sep - 09:34:31 10° WNW 09:43:29 45° SW 09:52:13 10° SSE daylight
29 Sep - 18:18:17 10° SSE 18:22:58 14° SE 18:27:41 10° ESE visible
29 Sep - 20:18:15 10° SW 20:27:54 79° SE 20:37:53 10° NE visible
29 Sep - 22:25:46 10° W 22:32:48 22° NW 22:40:02 10° N visible
30 Sep - 07:05:14 10° NNW 07:13:45 34° NE 07:21:59 10° ESE daylight
30 Sep - 09:09:08 10° WNW 09:18:20 51° SW 09:27:16 10° SSE daylight
30 Sep - 17:54:18 10° SSE 17:57:41 12° SE 18:01:06 10° ESE daylight
30 Sep - 19:53:11 10° SSW 20:02:44 71° SE 20:12:38 10° NE visible
30 Sep - 22:00:03 10° W 22:07:34 25° NW 22:15:17 10° N visible
01 Oct - 06:40:20 10° N 06:48:33 30° NE 06:56:30 10° ESE daylight
01 Oct - 08:43:47 10° NW 08:53:11 57° SW 09:02:18 10° SSE daylight
01 Oct - 17:31:44 10° SE 17:32:24 10° SE 17:33:04 10° SE daylight
01 Oct - 19:28:08 10° SSW 19:37:34 64° SE 19:47:20 10° NE visible
01 Oct - 21:34:25 10° WSW 21:42:19 28° NW 21:50:28 10° N visible
02 Oct - 06:15:29 10° N 06:23:20 27° NE 06:30:56 10° ESE daylight
02 Oct - 08:18:29 10° NW 08:28:03 65° SW 08:37:17 10° SSE daylight
02 Oct - 10:32:45 10° SW 10:33:08 10° SW 10:33:33 10° SW daylight
02 Oct - 19:03:08 10° SSW 19:12:25 57° SE 19:22:01 10° NE visible
02 Oct - 21:08:51 10° WSW 21:17:06 31° NW 21:25:36 10° N visible
